Weather History for Springfield, IL

Change the Weather History Date:

Saturday, July 27, 2013

  Actual Average Record
Temperature  
Mean Temperature 62 °F 76 °F  
Max Temperature 72 °F 86 °F 106 °F (1936)
Min Temperature 52 °F 65 °F 50 °F (1962)
Degree Days  
Heating Degree Days 3 0  
Month to date heating degree days 3 0  
Since 1 June heating degree days 15 15  
Since 1 July heating degree days 3 0  
Cooling Degree Days 0 10  
Month to date cooling degree days 281 296  
Year to date cooling degree days 665 640  
Since 1 June cooling degree days 539 536  
Growing Degree Days 12 (Base 50)    
Moisture  
Dew Point 54 °F    
Average Humidity 72    
Maximum Humidity 100    
Minimum Humidity 44    
Precipitation  
Precipitation 0.00 in 0.11 in 4.33 in (1981)
Month to date precipitation 2.40 3.48  
Year to date precipitation 29.47 21.95  
Snow  
Snow 0.00 in 0.00 in 0.00 in ()
Month to date snowfall 0.0 0.0  
Since 1 June snowfall 0.0 0.0  
Since 1 July snowfall 0.0 0.0  
Snow Depth 0.00 in    
Sea Level Pressure  
Sea Level Pressure 29.98 in    
Wind  
Wind Speed 9 mph (NW)    
Max Wind Speed 21 mph    
Max Gust Speed 28 mph    
Visibility 10 miles    
Events      
T = Trace of Precipitation, MM = Missing Value Source: NWS Daily Summary

Daily Weather History Graph

Daily Weather History Graph

Search for Another Location

Airport:

Trip Planner

Search our weather history database for the weather conditions in past years. The results will help you decide how hot, cold, wet, or windy it might be!

Date:

Astronomy

Jul. 27, 2013 Rise Set
Actual Time 5:53 AM CDT 8:16 PM CDT
Civil Twilight 5:22 AM CDT 8:47 PM CDT
Nautical Twilight 4:44 AM CDT 9:25 PM CDT
Astronomical Twilight 4:02 AM CDT 10:06 PM CDT
Moon 11:04 PM CDT (7/27) 11:33 AM CDT (7/27)
Length of Visible Light 15h 24m
Length of Day
14h 23m
Waning Gibbous, 70% of the Moon is Illuminated
Jul 27
Waning Gibbous
Jul 29
Last Quarter
Aug 6
New
Aug 14
First Quarter
Aug 20
Full

Hourly Weather History & Observations

Time (CDT) Temp. Dew Point Humidity Pressure Visibility Wind Dir Wind Speed Gust Speed Precip Events Conditions
12:52 AM 62.1 °F 61.0 °F 96% 29.95 in 10.0 mi WNW 6.9 mph - N/A   Clear
1:52 AM 61.0 °F 59.0 °F 93% 29.95 in 10.0 mi NW 6.9 mph - N/A   Clear
2:52 AM 59.0 °F 57.9 °F 96% 29.96 in 10.0 mi West 4.6 mph - N/A   Clear
3:52 AM 57.0 °F 57.0 °F 100% 29.96 in 10.0 mi West 4.6 mph - N/A   Clear
4:52 AM 57.0 °F 55.9 °F 96% 29.95 in 10.0 mi West 6.9 mph - N/A   Clear
5:52 AM 57.0 °F 55.9 °F 96% 29.97 in 10.0 mi WNW 6.9 mph - N/A   Clear
6:52 AM 57.9 °F 57.0 °F 97% 29.98 in 10.0 mi WNW 6.9 mph - N/A   Clear
7:52 AM 61.0 °F 59.0 °F 93% 29.98 in 10.0 mi NW 11.5 mph - N/A   Scattered Clouds
8:52 AM 63.0 °F 59.0 °F 87% 29.99 in 10.0 mi NW 10.4 mph - N/A   Scattered Clouds
9:22 AM 64.4 °F 59.0 °F 83% 29.99 in 10.0 mi NW 9.2 mph - N/A   Mostly Cloudy
9:52 AM 66.0 °F 60.1 °F 81% 29.99 in 10.0 mi NW 8.1 mph - N/A   Mostly Cloudy
10:52 AM 66.0 °F 57.0 °F 73% 29.99 in 10.0 mi NW 9.2 mph - N/A   Mostly Cloudy
11:26 AM 68.0 °F 55.4 °F 64% 30.00 in 10.0 mi WNW 12.7 mph - N/A   Mostly Cloudy
11:52 AM 68.0 °F 53.1 °F 59% 29.98 in 10.0 mi WNW 11.5 mph - N/A   Mostly Cloudy
12:52 PM 68.0 °F 52.0 °F 56% 29.97 in 10.0 mi NW 19.6 mph - N/A   Scattered Clouds
1:52 PM 69.1 °F 50.0 °F 51% 29.97 in 10.0 mi NW 18.4 mph 26.5 mph N/A   Scattered Clouds
2:52 PM 68.0 °F 48.9 °F 50% 29.98 in 10.0 mi NW 19.6 mph 25.3 mph N/A   Mostly Cloudy
3:52 PM 69.1 °F 48.9 °F 49% 29.98 in 10.0 mi NW 16.1 mph - N/A   Mostly Cloudy
4:52 PM 69.1 °F 46.9 °F 45% 29.98 in 10.0 mi NNW 12.7 mph 21.9 mph N/A   Mostly Cloudy
5:52 PM 69.1 °F 48.0 °F 47% 29.97 in 10.0 mi NW 8.1 mph - N/A   Scattered Clouds
6:52 PM 66.9 °F 46.9 °F 49% 29.97 in 10.0 mi NW 13.8 mph - N/A   Clear
7:52 PM 63.0 °F 50.0 °F 63% 29.97 in 10.0 mi WNW 5.8 mph - N/A   Clear
8:52 PM 59.0 °F 52.0 °F 78% 29.98 in 10.0 mi NW 3.5 mph - N/A   Clear
9:52 PM 55.9 °F 52.0 °F 87% 30.01 in 10.0 mi WNW 3.5 mph - N/A   Scattered Clouds
10:52 PM 55.0 °F 51.1 °F 86% 30.01 in 10.0 mi NNW 4.6 mph - N/A   Clear
11:52 PM 53.1 °F 51.1 °F 93% 30.00 in 10.0 mi SW 5.8 mph - N/A   Clear